,,Stat6,,Stat2,,Stat8,,Stat9,,Stat10,,Wind1,,Wind1,
time,status,PA1M_AVG,status,PR1M_SUM,status,RH1M_AVG,status,SR1M_AVG,status,TA1M_AVG,status,W1dAve1m,status,W1sAve1m,
2003-09-24, 00:00:00,VALID,918.449,VALID,0,VALID,100,VALID,0.0509425,VALID,18.7512,VALID,131,VALID,1.52617,
2003-09-24, 00:01:00,VALID,918.445,VALID,0,VALID,100,VALID,0.0509425,VALID,18.7572,VALID,118,VALID,1.73628,
2003-09-24, 00:02:00,VALID,918.429,VALID,0,VALID,100,VALID,0.0509425,VALID,18.7705,VALID,98,VALID,0.998438,
2003-09-24, 00:03:00,VALID,918.422,VALID,0,VALID,100,VALID,-0.0679233,VALID,18.7496,VALID,109,VALID,0.90253,
2003-09-24, 00:04:00,VALID,918.418,VALID,0,VALID,100,VALID,-0.0339617,VALID,18.7683,VALID,107,VALID,1.3324,
2003-09-24, 00:05:00,VALID,918.402,VALID,0,VALID,100,VALID,-0.0169808,VALID,18.775,VALID,120,VALID,1.36998,
2003-09-24, 00:06:00,VALID,918.374,VALID,0,VALID,100,VALID,-0.0679233,VALID,18.7973,VALID,115,VALID,1.28106,
2003-09-24, 00:07:00,VALID,918.349,VALID,0,VALID,100,VALID,-0.101885,VALID,18.7946,VALID,115,VALID,1.16225,
2003-09-24, 00:08:00,VALID,918.323,VALID,0,VALID,100,VALID,-0.0509425,VALID,18.7752,VALID,110,VALID,1.09102,
2003-09-24, 00:09:00,VALID,918.305,VALID,0,VALID,100,VALID,-0.0849042,VALID,18.7784,VALID,121,VALID,1.1431,
2003-09-24, 00:10:00,VALID,918.301,VALID,0,VALID,100,VALID,-0.0679233,VALID,18.7653,VALID,117,VALID,1.37445,
2003-09-24, 00:11:00,VALID,918.274,VALID,0,VALID,100,VALID,-0.101885,VALID,18.7653,VALID,121,VALID,1.70241,
2003-09-24, 00:12:00,VALID,918.255,VALID,0,VALID,100,VALID,-0.0849042,VALID,18.7752,VALID,122,VALID,1.62748,
2003-09-24, 00:13:00,VALID,918.227,VALID,0,VALID,100,VALID,-0.0849042,VALID,18.7821,VALID,121,VALID,1.3967,
2003-09-24, 00:14:00,VALID,918.207,VALID,0,VALID,100,VALID,-0.0679233,VALID,18.7918,VALID,131,VALID,1.42823,
2003-09-24, 00:15:00,VALID,918.198,VALID,0,VALID,100,VALID,-0.0509425,VALID,18.8144,VALID,120,VALID,1.46113,
2003-09-24, 00:16:00,VALID,918.187,VALID,0,VALID,100,VALID,-0.101885,VALID,18.8107,VALID,118,VALID,1.9827,
2003-09-24, 00:17:00,VALID,918.19,VALID,0,VALID,100,VALID,-0.0849042,VALID,18.81,VALID,126,VALID,1.35003,
2003-09-24, 00:18:00,VALID,918.177,VALID,0,VALID,100,VALID,0,VALID,18.8224,VALID,130,VALID,1.60677,
2003-09-24, 00:19:00,VALID,918.18,VALID,0,VALID,100,VALID,-0.0339617,VALID,18.8418,VALID,126,VALID,1.51246,
2003-09-24, 00:20:00,VALID,918.2,VALID,0,VALID,100,VALID,-0.0339617,VALID,18.8388,VALID,121,VALID,1.4334,
2003-09-24, 00:21:00,VALID,918.222,VALID,0,VALID,100,VALID,-0.0169808,VALID,18.8391,VALID,125,VALID,1.56668,
2003-09-24, 00:22:00,VALID,918.237,VALID,0,VALID,100,VALID,0,VALID,18.8383,VALID,136,VALID,2.16533,
2003-09-24, 00:23:00,VALID,918.242,VALID,0,VALID,100,VALID,-0.0509425,VALID,18.8386,VALID,135,VALID,1.86985,
2003-09-24, 00:24:00,VALID,918.244,VALID,0,VALID,100,VALID,-0.0169808,VALID,18.8517,VALID,140,VALID,2.08807,
2003-09-24, 00:25:00,VALID,918.239,VALID,0,VALID,100,VALID,-0.0169808,VALID,18.8676,VALID,148,VALID,1.98656,
2003-09-24, 00:26:00,VALID,918.227,VALID,0,VALID,100,VALID,0,VALID,18.887,VALID,131,VALID,1.80022,
2003-09-24, 00:27:00,VALID,918.221,VALID,0,VALID,100,VALID,0,VALID,18.8935,VALID,128,VALID,1.70974,
2003-09-24, 00:28:00,VALID,918.226,VALID,0,VALID,100,VALID,0,VALID,18.8997,VALID,135,VALID,1.90396,
2003-09-24, 00:29:00,VALID,918.229,VALID,0,VALID,100,VALID,-0.0169808,VALID,18.9228,VALID,120,VALID,1.9256,
2003-09-24, 00:30:00,VALID,918.236,VALID,0,VALID,100,VALID,-0.0339617,VALID,18.9258,VALID,110,VALID,1.67278,
2003-09-24, 00:31:00,VALID,918.247,VALID,0,VALID,100,VALID,-0.0169808,VALID,18.9295,VALID,105,VALID,1.59775,
2003-09-24, 00:32:00,VALID,918.249,VALID,0,VALID,100,VALID,0,VALID,18.9124,VALID,108,VALID,1.67492,
2003-09-24, 00:33:00,VALID,918.254,VALID,0,VALID,100,VALID,0,VALID,18.9195,VALID,94,VALID,1.41146,
2003-09-24, 00:34:00,VALID,918.256,VALID,0,VALID,100,VALID,-0.0339617,VALID,18.932,VALID,117,VALID,1.3819,
2003-09-24, 00:35:00,VALID,918.239,VALID,0,VALID,100,VALID,0,VALID,18.9454,VALID,121,VALID,1.6163,
2003-09-24, 00:36:00,VALID,918.232,VALID,0,VALID,100,VALID,-0.0169808,VALID,18.9387,VALID,132,VALID,1.35993,
2003-09-24, 00:37:00,VALID,918.215,VALID,0,VALID,100,VALID,-0.0169808,VALID,18.9414,VALID,141,VALID,1.37091,
2003-09-24, 00:38:00,VALID,918.218,VALID,0,VALID,100,VALID,-0.0169808,VALID,18.9486,VALID,126,VALID,1.45903,
2003-09-24, 00:39:00,VALID,918.218,VALID,0,VALID,100,VALID,-0.0339617,VALID,18.9451,VALID,130,VALID,1.31055,
2003-09-24, 00:40:00,VALID,918.218,VALID,0,VALID,100,VALID,-0.0169808,VALID,18.9451,VALID,133,VALID,1.9628,
2003-09-24, 00:41:00,VALID,918.215,VALID,0,VALID,100,VALID,-0.0339617,VALID,18.9652,VALID,142,VALID,1.59086,
2003-09-24, 00:42:00,VALID,918.219,VALID,0,VALID,100,VALID,-0.0509425,VALID,18.9583,VALID,124,VALID,1.50345,
2003-09-24, 00:43:00,VALID,918.22,VALID,0,VALID,100,VALID,-0.0169808,VALID,18.9781,VALID,135,VALID,0.874814,
2003-09-24, 00:44:00,VALID,918.206,VALID,0,VALID,100,VALID,-0.0169808,VALID,18.9613,VALID,134,VALID,1.33482,
2003-09-24, 00:45:00,VALID,918.198,VALID,0,VALID,100,VALID,-0.0509425,VALID,18.9484,VALID,129,VALID,1.21131,
2003-09-24, 00:46:00,VALID,918.194,VALID,0,VALID,100,VALID,-0.0169808,VALID,18.9451,VALID,129,VALID,1.09357,
2003-09-24, 00:47:00,VALID,918.194,VALID,0,VALID,100,VALID,0,VALID,18.9451,VALID,113,VALID,1.5867,
2003-09-24, 00:48:00,VALID,918.182,VALID,0,VALID,100,VALID,0,VALID,18.9195,VALID,103,VALID,1.24104,
2003-09-24, 00:49:00,VALID,918.189,VALID,0,VALID,100,VALID,0,VALID,18.8868,VALID,90,VALID,1.0545,
2003-09-24, 00:50:00,VALID,918.171,VALID,0,VALID,100,VALID,-0.0509425,VALID,18.8609,VALID,84,VALID,0.991168,
2003-09-24, 00:51:00,VALID,918.167,VALID,0,VALID,100,VALID,0,VALID,18.855,VALID,89,VALID,1.19355,
2003-09-24, 00:52:00,VALID,918.166,VALID,0,VALID,100,VALID,-0.0169808,VALID,18.8679,VALID,99,VALID,1.08239,
2003-09-24, 00:53:00,VALID,918.168,VALID,0,VALID,100,VALID,-0.0169808,VALID,18.8577,VALID,105,VALID,1.12214,
2003-09-24, 00:54:00,VALID,918.162,VALID,0,VALID,100,VALID,-0.0169808,VALID,18.8515,VALID,95,VALID,1.16071,
2003-09-24, 00:55:00,VALID,918.156,VALID,0,VALID,100,VALID,-0.0339617,VALID,18.8354,VALID,102,VALID,1.40568,
2003-09-24, 00:56:00,VALID,918.149,VALID,0,VALID,100,VALID,-0.0169808,VALID,18.8224,VALID,111,VALID,1.39323,
2003-09-24, 00:57:00,VALID,918.143,VALID,0,VALID,100,VALID,-0.0509425,VALID,18.8321,VALID,129,VALID,2.03068,
2003-09-24, 00:58:00,VALID,918.12,VALID,0,VALID,100,VALID,-0.0679233,VALID,18.8612,VALID,118,VALID,1.39825,
2003-09-24, 00:59:00,VALID,918.107,VALID,0,VALID,100,VALID,0.0169808,VALID,18.8644,VALID,89,VALID,0.81978,
2003-09-24, 01:00:00,VALID,918.076,VALID,0,VALID,100,VALID,0,VALID,18.8517,VALID,35,VALID,0.539773,
2003-09-24, 01:01:00,VALID,918.052,VALID,0,VALID,100,VALID,-0.0169808,VALID,18.8358,VALID,30,VALID,0.332386,
2003-09-24, 01:02:00,VALID,918.028,VALID,0,VALID,100,VALID,-0.0339617,VALID,18.8386,VALID,30,VALID,0.0494792,
2003-09-24, 01:03:00,VALID,918.019,VALID,0,VALID,100,VALID,-0.0679233,VALID,18.8351,VALID,31,VALID,0.0947027,
2003-09-24, 01:04:00,VALID,918.021,VALID,0,VALID,100,VALID,-0.0339617,VALID,18.816,VALID,51,VALID,0.772606,
2003-09-24, 01:05:00,VALID,918.019,VALID,0,VALID,100,VALID,0,VALID,18.8162,VALID,56,VALID,1.01432,
2003-09-24, 01:06:00,VALID,918.018,VALID,0,VALID,100,VALID,-0.0169808,VALID,18.7934,VALID,54,VALID,0.96582,
2003-09-24, 01:07:00,VALID,918.018,VALID,0,VALID,100,VALID,0,VALID,18.7676,VALID,59,VALID,1.22384,
2003-09-24, 01:08:00,VALID,918.012,VALID,0,VALID,100,VALID,0,VALID,18.7417,VALID,72,VALID,1.32088,
2003-09-24, 01:09:00,VALID,917.984,VALID,0,VALID,100,VALID,-0.0169808,VALID,18.7194,VALID,81,VALID,0.717478,
2003-09-24, 01:10:00,VALID,917.947,VALID,0,VALID,100,VALID,0,VALID,18.7092,VALID,113,VALID,0.844893,
2003-09-24, 01:11:00,VALID,917.928,VALID,0,VALID,100,VALID,0,VALID,18.732,VALID,121,VALID,0.932594,
2003-09-24, 01:12:00,VALID,917.926,VALID,0,VALID,100,VALID,-0.0339617,VALID,18.7196,VALID,111,VALID,0.984193,
2003-09-24, 01:13:00,VALID,917.919,VALID,0,VALID,100,VALID,-0.0339617,VALID,18.7127,VALID,129,VALID,0.949855,
2003-09-24, 01:14:00,VALID,917.929,VALID,0,VALID,100,VALID,-0.0339617,VALID,18.7261,VALID,140,VALID,0.890447,
2003-09-24, 01:15:00,VALID,917.938,VALID,0,VALID,100,VALID,-0.0509425,VALID,18.729,VALID,141,VALID,0.685826,
2003-09-24, 01:16:00,VALID,917.956,VALID,0,VALID,100,VALID,-0.0679233,VALID,18.7457,VALID,134,VALID,0.097561,
2003-09-24, 01:17:00,VALID,917.98,VALID,0,VALID,100,VALID,0,VALID,18.7258,VALID,153,VALID,0.130269,
2003-09-24, 01:18:00,VALID,917.988,VALID,0,VALID,100,VALID,0.0509425,VALID,18.7117,VALID,243,VALID,0.213299,
2003-09-24, 01:19:00,VALID,918.008,VALID,0,VALID,100,VALID,0.0339617,VALID,18.7013,VALID,243,VALID,0,
2003-09-24, 01:20:00,VALID,918.004,VALID,0,VALID,100,VALID,0.0849042,VALID,18.705,VALID,243,VALID,0.00323933,
2003-09-24, 01:21:00,VALID,918.012,VALID,0,VALID,100,VALID,0.101885,VALID,18.7115,VALID,228,VALID,0.139101,
2003-09-24, 01:22:00,VALID,917.988,VALID,0,VALID,100,VALID,0.101885,VALID,18.7115,VALID,128,VALID,0.551153,
2003-09-24, 01:23:00,VALID,917.987,VALID,0,VALID,100,VALID,0.0339617,VALID,18.7147,VALID,132,VALID,0.26391,
2003-09-24, 01:24:00,VALID,917.967,VALID,0,VALID,100,VALID,0.0849042,VALID,18.708,VALID,125,VALID,0.644792,
2003-09-24, 01:25:00,VALID,917.949,VALID,0,VALID,100,VALID,0.0339617,VALID,18.6988,VALID,116,VALID,0.779978,
2003-09-24, 01:26:00,VALID,917.922,VALID,0,VALID,100,VALID,0.101885,VALID,18.6728,VALID,97,VALID,0.662427,
2003-09-24, 01:27:00,VALID,917.901,VALID,0,VALID,100,VALID,0.0679233,VALID,18.6765,VALID,89,VALID,0.720656,
2003-09-24, 01:28:00,VALID,917.882,VALID,0,VALID,100,VALID,0.0509425,VALID,18.6605,VALID,93,VALID,0.696766,
2003-09-24, 01:29:00,VALID,917.855,VALID,0,VALID,100,VALID,0.0679233,VALID,18.631,VALID,88,VALID,0.785342,
2003-09-24, 01:30:00,VALID,917.835,VALID,0,VALID,100,VALID,0.0339617,VALID,18.6412,VALID,86,VALID,0.803445,
2003-09-24, 01:31:00,VALID,917.813,VALID,0,VALID,100,VALID,0.0679233,VALID,18.6313,VALID,85,VALID,0.849653,
2003-09-24, 01:32:00,VALID,917.803,VALID,0,VALID,100,VALID,0.0339617,VALID,18.6253,VALID,86,VALID,1.125,
2003-09-24, 01:33:00,VALID,917.797,VALID,0,VALID,100,VALID,-0.0509425,VALID,18.6227,VALID,88,VALID,0.930778,
2003-09-24, 01:34:00,VALID,917.767,VALID,0,VALID,100,VALID,-0.0339617,VALID,18.6483,VALID,107,VALID,0.745206,
2003-09-24, 01:35:00,VALID,917.737,VALID,0,VALID,100,VALID,-0.0169808,VALID,18.6846,VALID,119,VALID,0.739524,
2003-09-24, 01:36:00,VALID,917.712,VALID,0,VALID,100,VALID,-0.0339617,VALID,18.6903,VALID,114,VALID,0.687314,
2003-09-24, 01:37:00,VALID,917.697,VALID,0,VALID,100,VALID,0,VALID,18.6998,VALID,117,VALID,0.868096,
2003-09-24, 01:38:00,VALID,917.681,VALID,0,VALID,100,VALID,-0.0169808,VALID,18.7064,VALID,109,VALID,0.942951,
2003-09-24, 01:39:00,VALID,917.648,VALID,0,VALID,100,VALID,-0.0169808,VALID,18.694,VALID,100,VALID,1.09115,
2003-09-24, 01:40:00,VALID,917.647,VALID,0,VALID,100,VALID,-0.0169808,VALID,18.6645,VALID,77,VALID,1.08798,
2003-09-24, 01:41:00,VALID,917.624,VALID,0,VALID,100,VALID,-0.0509425,VALID,18.6419,VALID,75,VALID,1.03161,
2003-09-24, 01:42:00,VALID,917.611,VALID,0,VALID,100,VALID,-0.0339617,VALID,18.5935,VALID,80,VALID,0.926258,
2003-09-24, 01:43:00,VALID,917.598,VALID,0,VALID,100,VALID,-0.0169808,VALID,18.5907,VALID,93,VALID,0.959549,
2003-09-24, 01:44:00,VALID,917.558,VALID,0,VALID,100,VALID,-0.0509425,VALID,18.6001,VALID,110,VALID,1.25149,
2003-09-24, 01:45:00,VALID,917.538,VALID,0,VALID,100,VALID,-0.0679233,VALID,18.6135,VALID,115,VALID,1.38616,
2003-09-24, 01:46:00,VALID,917.511,VALID,0,VALID,100,VALID,-0.0849042,VALID,18.6299,VALID,128,VALID,1.32085,
2003-09-24, 01:47:00,VALID,917.478,VALID,0,VALID,100,VALID,-0.0679233,VALID,18.6518,VALID,132,VALID,1.08516,
2003-09-24, 01:48:00,VALID,917.455,VALID,0,VALID,100,VALID,0.0339617,VALID,18.6797,VALID,132,VALID,0.519077,
2003-09-24, 01:49:00,VALID,917.428,VALID,0,VALID,100,VALID,0.0509425,VALID,18.6861,VALID,118,VALID,0.56032,
2003-09-24, 01:50:00,VALID,917.434,VALID,0,VALID,100,VALID,0.0679233,VALID,18.6635,VALID,115,VALID,0.713415,
2003-09-24, 01:51:00,VALID,917.429,VALID,0,VALID,100,VALID,0.0509425,VALID,18.6444,VALID,119,VALID,0.974201,
2003-09-24, 01:52:00,VALID,917.427,VALID,0,VALID,100,VALID,0.0849042,VALID,18.631,VALID,95,VALID,1.16481,
2003-09-24, 01:53:00,VALID,917.427,VALID,0,VALID,100,VALID,0.0679233,VALID,18.6402,VALID,93,VALID,0.868459,
2003-09-24, 01:54:00,VALID,917.417,VALID,0,VALID,100,VALID,0.0509425,VALID,18.6506,VALID,83,VALID,0.633523,
2003-09-24, 01:55:00,VALID,917.417,VALID,0,VALID,100,VALID,0.0679233,VALID,18.6502,VALID,51,VALID,0.618963,
2003-09-24, 01:56:00,VALID,917.422,VALID,0,VALID,100,VALID,0.0509425,VALID,18.6638,VALID,44,VALID,0.611281,
2003-09-24, 01:57:00,VALID,917.423,VALID,0,VALID,100,VALID,0.0679233,VALID,18.6504,VALID,55,VALID,0.557413,
2003-09-24, 01:58:00,VALID,917.418,VALID,0,VALID,100,VALID,0.0849042,VALID,18.637,VALID,61,VALID,0.511719,
2003-09-24, 01:59:00,VALID,917.412,VALID,0,VALID,100,VALID,0.0679233,VALID,18.5955,VALID,48,VALID,0.942535,
2003-09-24, 02:00:00,VALID,917.398,VALID,0,VALID,100,VALID,0.0849042,VALID,18.5734,VALID,45,VALID,0.911395,
2003-09-24, 02:01:00,VALID,917.391,VALID,0,VALID,100,VALID,0.0849042,VALID,18.518,VALID,46,VALID,0.839558,
2003-09-24, 02:02:00,VALID,917.361,VALID,0,VALID,100,VALID,0.0849042,VALID,18.4666,VALID,43,VALID,0.926962,
2003-09-24, 02:03:00,VALID,917.354,VALID,0,VALID,100,VALID,-0.0169808,VALID,18.4424,VALID,29,VALID,1.05139,
2003-09-24, 02:04:00,VALID,917.335,VALID,0,VALID,100,VALID,-0.0169808,VALID,18.4452,VALID,27,VALID,1.13504,
2003-09-24, 02:05:00,VALID,917.325,VALID,0,VALID,100,VALID,-0.0679233,VALID,18.465,VALID,20,VALID,1.01448,
2003-09-24, 02:06:00,VALID,917.321,VALID,0,VALID,100,VALID,-0.0339617,VALID,18.4583,VALID,53,VALID,1.02362,
2003-09-24, 02:07:00,VALID,917.31,VALID,0,VALID,100,VALID,-0.0509425,VALID,18.4675,VALID,59,VALID,0.833807,
2003-09-24, 02:08:00,VALID,917.299,VALID,0,VALID,100,VALID,-0.0509425,VALID,18.5139,VALID,65,VALID,0.728993,
2003-09-24, 02:09:00,VALID,917.294,VALID,0,VALID,100,VALID,-0.0509425,VALID,18.5261,VALID,77,VALID,0.830543,
2003-09-24, 02:10:00,VALID,917.285,VALID,0,VALID,100,VALID,-0.0679233,VALID,18.5234,VALID,95,VALID,0.724432,
2003-09-24, 02:11:00,VALID,917.273,VALID,0,VALID,100,VALID,-0.0509425,VALID,18.5164,VALID,99,VALID,0.767113,
2003-09-24, 02:12:00,VALID,917.265,VALID,0,VALID,100,VALID,-0.0509425,VALID,18.5353,VALID,112,VALID,0.608333,
2003-09-24, 02:13:00,VALID,917.244,VALID,0,VALID,100,VALID,-0.0339617,VALID,18.5425,VALID,120,VALID,0.600446,
2003-09-24, 02:14:00,VALID,917.233,VALID,0,VALID,100,VALID,-0.0339617,VALID,18.5132,VALID,120,VALID,0.597565,
2003-09-24, 02:15:00,VALID,917.197,VALID,0,VALID,100,VALID,-0.0169808,VALID,18.5038,VALID,118,VALID,0.538132,
2003-09-24, 02:16:00,VALID,917.162,VALID,0,VALID,100,VALID,-0.0169808,VALID,18.4874,VALID,84,VALID,0.464489,
2003-09-24, 02:17:00,VALID,917.142,VALID,0,VALID,100,VALID,0,VALID,18.4426,VALID,62,VALID,0.520531,
2003-09-24, 02:18:00,VALID,917.126,VALID,0,VALID,100,VALID,0.0339617,VALID,18.3813,VALID,53,VALID,0.699929,
2003-09-24, 02:19:00,VALID,917.113,VALID,0,VALID,100,VALID,0,VALID,18.3548,VALID,74,VALID,0.767149,
2003-09-24, 02:20:00,VALID,917.091,VALID,0,VALID,100,VALID,-0.0169808,VALID,18.3871,VALID,83,VALID,0.669331,
2003-09-24, 02:21:00,VALID,917.095,VALID,0,VALID,100,VALID,-0.0169808,VALID,18.4002,VALID,81,VALID,0.638263,
2003-09-24, 02:22:00,VALID,917.079,VALID,0,VALID,100,VALID,-0.0509425,VALID,18.4263,VALID,79,VALID,0.917492,
2003-09-24, 02:23:00,VALID,917.086,VALID,0,VALID,100,VALID,-0.0169808,VALID,18.436,VALID,99,VALID,1.27198,
2003-09-24, 02:24:00,VALID,917.061,VALID,0,VALID,100,VALID,-0.0339617,VALID,18.5072,VALID,110,VALID,1.49028,
2003-09-24, 02:25:00,VALID,917.043,VALID,0,VALID,100,VALID,-0.0169808,VALID,18.5395,VALID,119,VALID,1.40962,
2003-09-24, 02:26:00,VALID,917.019,VALID,0,VALID,100,VALID,0.0169808,VALID,18.5487,VALID,122,VALID,1.83784,
2003-09-24, 02:27:00,VALID,916.996,VALID,0,VALID,100,VALID,0,VALID,18.5748,VALID,127,VALID,1.77071,
2003-09-24, 02:28:00,VALID,916.987,VALID,0,VALID,100,VALID,0,VALID,18.5582,VALID,119,VALID,1.79792,
2003-09-24, 02:29:00,VALID,916.963,VALID,0,VALID,100,VALID,-0.0169808,VALID,18.5487,VALID,107,VALID,1.18444,
2003-09-24, 02:30:00,VALID,916.951,VALID,0,VALID,100,VALID,0,VALID,18.5326,VALID,116,VALID,1.48137,
2003-09-24, 02:31:00,VALID,916.952,VALID,0,VALID,100,VALID,-0.0169808,VALID,18.5259,VALID,113,VALID,1.24293,
2003-09-24, 02:32:00,VALID,916.947,VALID,0,VALID,100,VALID,-0.0169808,VALID,18.5231,VALID,121,VALID,1.25056,
2003-09-24, 02:33:00,VALID,916.936,VALID,0,VALID,100,VALID,0,VALID,18.539,VALID,122,VALID,0.958651,
2003-09-24, 02:34:00,VALID,916.946,VALID,0,VALID,100,VALID,-0.0169808,VALID,18.5328,VALID,96,VALID,0.505087,
2003-09-24, 02:35:00,VALID,916.938,VALID,0,VALID,100,VALID,0,VALID,18.5363,VALID,59,VALID,0.379542,
2003-09-24, 02:36:00,VALID,916.944,VALID,0,VALID,100,VALID,-0.0169808,VALID,18.5264,VALID,51,VALID,0.394709,
2003-09-24, 02:37:00,VALID,916.946,VALID,0,VALID,100,VALID,-0.0169808,VALID,18.5199,VALID,27,VALID,0.718349,
2003-09-24, 02:38:00,VALID,916.952,VALID,0,VALID,100,VALID,0,VALID,18.5137,VALID,38,VALID,1.00018,
2003-09-24, 02:39:00,VALID,916.958,VALID,0,VALID,100,VALID,0.0169808,VALID,18.5199,VALID,45,VALID,0.739462,
2003-09-24, 02:40:00,VALID,916.953,VALID,0,VALID,100,VALID,-0.0339617,VALID,18.5068,VALID,60,VALID,0.614211,
2003-09-24, 02:41:00,VALID,916.967,VALID,0,VALID,100,VALID,0,VALID,18.5227,VALID,95,VALID,0.798295,
2003-09-24, 02:42:00,VALID,916.957,VALID,0,VALID,100,VALID,-0.0169808,VALID,18.5386,VALID,116,VALID,1.20603,
2003-09-24, 02:43:00,VALID,916.958,VALID,0,VALID,100,VALID,0,VALID,18.5745,VALID,123,VALID,1.48531,
2003-09-24, 02:44:00,VALID,916.955,VALID,0,VALID,100,VALID,0,VALID,18.5718,VALID,123,VALID,0.952237,
2003-09-24, 02:45:00,VALID,916.937,VALID,0,VALID,100,VALID,0,VALID,18.5487,VALID,113,VALID,1.238,
2003-09-24, 02:46:00,VALID,916.918,VALID,0,VALID,100,VALID,0.0339617,VALID,18.5549,VALID,110,VALID,0.566667,
2003-09-24, 02:47:00,VALID,916.903,VALID,0,VALID,100,VALID,0.0169808,VALID,18.5453,VALID,128,VALID,0.903392,
2003-09-24, 02:48:00,VALID,916.899,VALID,0,VALID,100,VALID,0,VALID,18.5547,VALID,145,VALID,0.895349,
2003-09-24, 02:49:00,VALID,916.883,VALID,0,VALID,100,VALID,0,VALID,18.5653,VALID,154,VALID,0.342448,
2003-09-24, 02:50:00,VALID,916.872,VALID,0,VALID,100,VALID,0,VALID,18.5651,VALID,154,VALID,0.236793,
2003-09-24, 02:51:00,VALID,916.858,VALID,0,VALID,100,VALID,0,VALID,18.5681,VALID,183,VALID,0.363467,
2003-09-24, 02:52:00,VALID,916.855,VALID,0,VALID,100,VALID,0,VALID,18.5847,VALID,197,VALID,0.200994,
2003-09-24, 02:53:00,VALID,916.846,VALID,0,VALID,100,VALID,0,VALID,18.5646,VALID,205,VALID,0.322218,
2003-09-24, 02:54:00,VALID,916.849,VALID,0,VALID,100,VALID,0,VALID,18.5586,VALID,217,VALID,0.132639,
2003-09-24, 02:55:00,VALID,916.853,VALID,0,VALID,100,VALID,0,VALID,18.5418,VALID,217,VALID,0.0834517,
2003-09-24, 02:56:00,VALID,916.843,VALID,0,VALID,100,VALID,0,VALID,18.5358,VALID,217,VALID,0.268895,
2003-09-24, 02:57:00,VALID,916.843,VALID,0,VALID,100,VALID,0.0169808,VALID,18.5199,VALID,217,VALID,0.227834,
2003-09-24, 02:58:00,VALID,916.813,VALID,0,VALID,100,VALID,0,VALID,18.5097,VALID,217,VALID,0.0490552,
2003-09-24, 02:59:00,VALID,916.797,VALID,0,VALID,100,VALID,-0.0339617,VALID,18.5194,VALID,190,VALID,0.122461,
2003-09-24, 03:00:00,VALID,916.788,VALID,0,VALID,100,VALID,0.0169808,VALID,18.5326,VALID,135,VALID,0.278942,
2003-09-24, 03:01:00,VALID,916.76,VALID,0,VALID,100,VALID,0,VALID,18.5294,VALID,115,VALID,0.353609,
2003-09-24, 03:02:00,VALID,916.743,VALID,0,VALID,100,VALID,0,VALID,18.5192,VALID,107,VALID,0.367578,
2003-09-24, 03:03:00,VALID,916.725,VALID,0,VALID,100,VALID,0.0169808,VALID,18.513,VALID,107,VALID,0.20141,
2003-09-24, 03:04:00,VALID,916.719,VALID,0,VALID,100,VALID,0,VALID,18.5003,VALID,107,VALID,0.180051,
2003-09-24, 03:05:00,VALID,916.705,VALID,0,VALID,100,VALID,0,VALID,18.4779,VALID,107,VALID,0.297585,
2003-09-24, 03:06:00,VALID,916.687,VALID,0,VALID,100,VALID,0,VALID,18.4355,VALID,107,VALID,0.261719,
2003-09-24, 03:07:00,VALID,916.679,VALID,0,VALID,100,VALID,0,VALID,18.4166,VALID,101,VALID,0.349826,
2003-09-24, 03:08:00,VALID,916.679,VALID,0,VALID,100,VALID,0,VALID,18.3873,VALID,86,VALID,0.118963,
2003-09-24, 03:09:00,VALID,916.66,VALID,0,VALID,100,VALID,0,VALID,18.3749,VALID,86,VALID,0.10665,
2003-09-24, 03:10:00,VALID,916.661,VALID,0,VALID,100,VALID,-0.0169808,VALID,18.4198,VALID,86,VALID,0.00545058,
2003-09-24, 03:11:00,VALID,916.658,VALID,0,VALID,100,VALID,-0.0169808,VALID,18.4256,VALID,86,VALID,0.0574777,
2003-09-24, 03:12:00,VALID,916.645,VALID,0,VALID,100,VALID,0,VALID,18.3972,VALID,76,VALID,0.50017,
2003-09-24, 03:13:00,VALID,916.633,VALID,0,VALID,100,VALID,-0.0169808,VALID,18.358,VALID,75,VALID,0.754724,
2003-09-24, 03:14:00,VALID,916.622,VALID,0,VALID,100,VALID,0,VALID,18.4041,VALID,77,VALID,0.909108,
2003-09-24, 03:15:00,VALID,916.628,VALID,0,VALID,100,VALID,0,VALID,18.4101,VALID,120,VALID,0.709695,
2003-09-24, 03:16:00,VALID,916.61,VALID,0,VALID,100,VALID,-0.0169808,VALID,18.3841,VALID,120,VALID,0.754724,
2003-09-24, 03:17:00,VALID,916.606,VALID,0,VALID,100,VALID,0,VALID,18.4325,VALID,111,VALID,0.708452,
2003-09-24, 03:18:00,VALID,916.612,VALID,0,VALID,100,VALID,0,VALID,18.4908,VALID,100,VALID,0.77439,
2003-09-24, 03:19:00,VALID,916.608,VALID,0,VALID,100,VALID,0,VALID,18.5363,VALID,102,VALID,0.661086,
2003-09-24, 03:20:00,VALID,916.625,VALID,0,VALID,100,VALID,0,VALID,18.5554,VALID,86,VALID,0.38205,
2003-09-24, 03:21:00,VALID,916.631,VALID,0,VALID,100,VALID,-0.0339617,VALID,18.5132,VALID,48,VALID,0.461338,
2003-09-24, 03:22:00,VALID,916.643,VALID,0,VALID,100,VALID,0,VALID,18.4226,VALID,48,VALID,0.472098,
2003-09-24, 03:23:00,VALID,916.661,VALID,0,VALID,100,VALID,0,VALID,18.3324,VALID,48,VALID,0.3212,
2003-09-24, 03:24:00,VALID,916.643,VALID,0,VALID,100,VALID,0,VALID,18.2681,VALID,47,VALID,0.251453,
2003-09-24, 03:25:00,VALID,916.647,VALID,0,VALID,100,VALID,-0.0169808,VALID,18.2713,VALID,47,VALID,0.0610795,
2003-09-24, 03:26:00,VALID,916.65,VALID,0,VALID,100,VALID,-0.0169808,VALID,18.2782,VALID,47,VALID,0,
2003-09-24, 03:27:00,VALID,916.643,VALID,0,VALID,100,VALID,-0.0679233,VALID,18.2685,VALID,47,VALID,0.0228516,
2003-09-24, 03:28:00,VALID,916.62,VALID,0,VALID,100,VALID,-0.0169808,VALID,18.2326,VALID,52,VALID,0.531059,
2003-09-24, 03:29:00,VALID,916.613,VALID,0,VALID,100,VALID,-0.0169808,VALID,18.2266,VALID,56,VALID,0.609738,
2003-09-24, 03:30:00,VALID,916.605,VALID,0,VALID,100,VALID,-0.0849042,VALID,18.1719,VALID,56,VALID,0.751715,
2003-09-24, 03:31:00,VALID,916.586,VALID,0,VALID,100,VALID,-0.0849042,VALID,18.13,VALID,55,VALID,0.798437,
2003-09-24, 03:32:00,VALID,916.577,VALID,0,VALID,100,VALID,-0.0679233,VALID,18.1071,VALID,55,VALID,0.890625,
2003-09-24, 03:33:00,VALID,916.552,VALID,0,VALID,100,VALID,-0.0339617,VALID,18.1297,VALID,53,VALID,0.748728,
2003-09-24, 03:34:00,VALID,916.545,VALID,0,VALID,100,VALID,-0.0169808,VALID,18.1556,VALID,65,VALID,0.680575,
2003-09-24, 03:35:00,VALID,916.544,VALID,0,VALID,100,VALID,-0.0679233,VALID,18.2035,VALID,76,VALID,0.64375,
2003-09-24, 03:36:00,VALID,916.55,VALID,0,VALID,100,VALID,-0.0339617,VALID,18.2229,VALID,57,VALID,0.482851,
2003-09-24, 03:37:00,VALID,916.572,VALID,0,VALID,100,VALID,-0.0169808,VALID,18.1809,VALID,48,VALID,0.393293,
2003-09-24, 03:38:00,VALID,916.563,VALID,0,VALID,100,VALID,-0.0169808,VALID,18.1814,VALID,48,VALID,0.225781,
2003-09-24, 03:39:00,VALID,916.561,VALID,0,VALID,100,VALID,-0.0339617,VALID,18.2068,VALID,48,VALID,0.0943216,
2003-09-24, 03:40:00,VALID,916.562,VALID,0,VALID,100,VALID,-0.0169808,VALID,18.2393,VALID,48,VALID,0.0182292,
2003-09-24, 03:41:00,VALID,916.57,VALID,0,VALID,100,VALID,-0.0169808,VALID,18.2748,VALID,48,VALID,0,
2003-09-24, 03:42:00,VALID,916.566,VALID,0,VALID,100,VALID,-0.0509425,VALID,18.3068,VALID,48,VALID,0,
2003-09-24, 03:43:00,VALID,916.57,VALID,0,VALID,100,VALID,-0.0339617,VALID,18.3267,VALID,48,VALID,0,